"Period start","avg(HW err(1)/warn(2) (#))","avg(Visibility (m))","avg(Weather code (#))","avg(Precip intensity (mm/h))","min(HW err(1)/warn(2) (#))","max(HW err(1)/warn(2) (#))","std(HW err(1)/warn(2) (#))","med(HW err(1)/warn(2) (#))","min(Visibility (m))","max(Visibility (m))","std(Visibility (m))","med(Visibility (m))","min(Weather code (#))","max(Weather code (#))","std(Weather code (#))","med(Weather code (#))","min(Precip intensity (mm/h))","max(Precip intensity (mm/h))","std(Precip intensity (mm/h))","med(Precip intensity (mm/h))"
2016-06-27 00:00:00,0,49603,0,0.00,0,0,0,0,47264,50000,859,50000,0,0,0,0,0.00,0.00,0.00,0.00
2016-06-27 00:10:00,0,50000,0,0.00,0,0,0,0,50000,50000,0,50000,0,0,0,0,0.00,0.00,0.00,0.00
2016-06-27 00:20:00,0,49732,0,0.00,0,0,0,0,47635,50000,705,50000,0,0,0,0,0.00,0.00,0.00,0.00
2016-06-27 00:30:00,0,46676,0,0.00,0,0,0,0,37745,50000,4232,49676,0,0,0,0,0.00,0.00,0.00,0.00
2016-06-27 00:40:00,1,38177,0,0.00,0,2,1,0,28199,50000,7459,37052,0,0,0,0,0.00,0.00,0.00,0.00
2016-06-27 00:50:00,1,43163,0,0.00,0,2,1,0,31084,50000,5806,42268,0,0,0,0,0.00,0.00,0.00,0.00
2016-06-27 01:00:00,2,45252,0,0.00,2,2,0,2,31255,50000,6247,49503,0,0,0,0,0.00,0.00,0.00,0.00
2016-06-27 01:10:00,2,37123,0,0.00,2,2,0,2,22029,50000,10948,39816,0,0,0,0,0.00,0.00,0.00,0.00
2016-06-27 01:20:00,2,39330,0,0.00,0,2,1,2,26846,50000,7263,38955,0,0,0,0,0.00,0.00,0.00,0.00
2016-06-27 01:30:00,2,45664,0,0.00,2,2,0,2,31280,50000,6111,48853,0,0,0,0,0.00,0.00,0.00,0.00
2016-06-27 01:40:00,2,45822,0,0.00,2,2,0,2,31701,50000,6866,49214,0,0,0,0,0.00,0.00,0.00,0.00
2016-06-27 01:50:00,2,34678,0,0.00,2,2,0,2,17997,50000,10339,34033,0,0,0,0,0.00,0.00,0.00,0.00
2016-06-27 02:00:00,2,39203,0,0.00,2,2,0,2,29081,50000,7279,40225,0,0,0,0,0.00,0.00,0.00,0.00
2016-06-27 02:10:00,1,45626,0,0.00,0,2,1,0,32875,50000,5279,47535,0,0,0,0,0.00,0.00,0.00,0.00
2016-06-27 02:20:00,2,39783,0,0.00,0,2,1,2,32262,50000,5062,40856,0,0,0,0,0.00,0.00,0.00,0.00
2016-06-27 02:30:00,2,36420,0,0.00,2,2,0,2,25480,50000,7927,35240,0,0,0,0,0.00,0.00,0.00,0.00
2016-06-27 02:40:00,2,39166,0,0.00,2,2,0,2,20822,50000,9609,41096,0,0,0,0,0.00,0.00,0.00,0.00
2016-06-27 02:50:00,2,44350,0,0.00,2,2,0,2,28902,50000,7036,47852,0,0,0,0,0.00,0.00,0.00,0.00
2016-06-27 03:00:00,1,47575,0,0.00,0,2,1,1,39833,50000,3096,48823,0,0,0,0,0.00,0.00,0.00,0.00
2016-06-27 03:10:00,1,46535,0,0.00,0,2,1,2,29263,50000,6561,50000,0,0,0,0,0.00,0.00,0.00,0.00
2016-06-27 03:20:00,2,41702,0,0.00,2,2,0,2,34722,50000,4638,41658,0,0,0,0,0.00,0.00,0.00,0.00
2016-06-27 03:30:00,2,44049,0,0.00,2,2,0,2,38143,50000,4454,43084,0,0,0,0,0.00,0.00,0.00,0.00
2016-06-27 03:40:00,2,47593,0,0.00,0,2,1,2,38580,50000,3504,49664,0,0,0,0,0.00,0.00,0.00,0.00
2016-06-27 03:50:00,2,46338,0,0.00,2,2,0,2,35141,50000,4956,48304,0,0,0,0,0.00,0.00,0.00,0.00
2016-06-27 04:00:00,2,43631,0,0.00,2,2,0,2,26859,50000,8042,46440,0,0,0,0,0.00,0.00,0.00,0.00
2016-06-27 04:10:00,2,49866,0,0.00,2,2,0,2,49185,50000,270,50000,0,0,0,0,0.00,0.00,0.00,0.00
2016-06-27 04:20:00,2,45159,0,0.00,2,2,0,2,33056,50000,5437,47208,0,0,0,0,0.00,0.00,0.00,0.00
2016-06-27 04:30:00,1,47209,0,0.00,0,2,1,2,36633,50000,4100,48620,0,0,0,0,0.00,0.00,0.00,0.00
2016-06-27 04:40:00,0,49938,0,0.00,0,2,1,0,49583,50000,133,50000,0,0,0,0,0.00,0.00,0.00,0.00
2016-06-27 04:50:00,1,48024,0,0.00,0,2,1,0,44850,50000,2393,49904,0,0,0,0,0.00,0.00,0.00,0.00
2016-06-27 05:00:00,1,45922,0,0.00,0,2,1,2,40114,50000,3392,46066,0,0,0,0,0.00,0.00,0.00,0.00
2016-06-27 05:10:00,0,41889,0,0.00,0,0,0,0,28495,50000,7693,43580,0,0,0,0,0.00,0.00,0.00,0.00
2016-06-27 05:20:00,0,49990,0,0.00,0,0,0,0,49896,50000,31,50000,0,0,0,0,0.00,0.00,0.00,0.00
2016-06-27 05:30:00,0,49444,0,0.00,0,0,0,0,46590,50000,1147,50000,0,0,0,0,0.00,0.00,0.00,0.00
2016-06-27 05:40:00,0,49691,0,0.00,0,0,0,0,48411,50000,496,50000,0,0,0,0,0.00,0.00,0.00,0.00
2016-06-27 05:50:00,0,48596,0,0.00,0,0,0,0,45642,50000,1592,49412,0,0,0,0,0.00,0.00,0.00,0.00
2016-06-27 06:00:00,0,48338,0,0.00,0,0,0,0,42870,50000,2313,49449,0,0,0,0,0.00,0.00,0.00,0.00
2016-06-27 06:10:00,0,47928,0,0.00,0,2,1,0,43475,50000,2497,49407,0,0,0,0,0.00,0.00,0.00,0.00
2016-06-27 06:20:00,2,48953,0,0.00,2,2,0,2,43305,50000,2100,50000,0,0,0,0,0.00,0.00,0.00,0.00
2016-06-27 06:30:00,1,49560,0,0.00,0,2,1,0,46005,50000,1191,50000,0,0,0,0,0.00,0.00,0.00,0.00
2016-06-27 06:40:00,0,49108,0,0.00,0,0,0,0,44045,50000,1905,50000,0,0,0,0,0.00,0.00,0.00,0.00
2016-06-27 06:50:00,0,47388,0,0.00,0,0,0,0,32090,50000,5312,49940,0,0,0,0,0.00,0.00,0.00,0.00
2016-06-27 07:00:00,0,49015,0,0.00,0,0,0,0,44281,50000,1671,49702,0,0,0,0,0.00,0.00,0.00,0.00
2016-06-27 07:10:00,1,48220,0,0.00,0,2,1,0,41323,50000,2929,50000,0,0,0,0,0.00,0.00,0.00,0.00
2016-06-27 07:20:00,2,47464,0,0.00,2,2,0,2,39654,50000,3447,49800,0,0,0,0,0.00,0.00,0.00,0.00
2016-06-27 07:30:00,0,48396,0,0.00,0,2,1,0,42829,50000,2709,50000,0,0,0,0,0.00,0.00,0.00,0.00
2016-06-27 07:40:00,0,48975,0,0.00,0,0,0,0,43685,50000,1900,49923,0,0,0,0,0.00,0.00,0.00,0.00
2016-06-27 07:50:00,1,45240,0,0.00,0,2,1,2,39653,50000,3976,44543,0,0,0,0,0.00,0.00,0.00,0.00
2016-06-27 08:00:00,0,48118,0,0.00,0,0,0,0,40458,50000,3084,50000,0,0,0,0,0.00,0.00,0.00,0.00
2016-06-27 08:10:00,0,45768,0,0.00,0,0,0,0,22551,50000,8001,49060,0,0,0,0,0.00,0.00,0.00,0.00
2016-06-27 08:20:00,0,42650,0,0.00,0,1,0,0,14732,50000,11177,48655,0,0,0,0,0.00,0.00,0.00,0.00
2016-06-27 08:30:00,0,49287,0,0.00,0,0,0,0,46253,50000,1294,50000,0,0,0,0,0.00,0.00,0.00,0.00
2016-06-27 08:40:00,0,42010,0,0.00,0,0,0,0,12351,50000,12263,49216,0,0,0,0,0.00,0.00,0.00,0.00
2016-06-27 08:50:00,0,49696,0,0.00,0,0,0,0,48408,50000,609,50000,0,0,0,0,0.00,0.00,0.00,0.00
2016-06-27 09:00:00,0,49104,0,0.00,0,0,0,0,44078,50000,1904,50000,0,0,0,0,0.00,0.00,0.00,0.00
2016-06-27 09:10:00,1,45030,0,0.00,0,2,1,0,36545,49648,4367,46976,0,0,0,0,0.00,0.00,0.00,0.00
2016-06-27 09:20:00,2,49796,0,0.00,2,2,0,2,47962,50000,611,50000,0,0,0,0,0.00,0.00,0.00,0.00
2016-06-27 09:30:00,2,49653,0,0.00,2,2,0,2,47360,50000,803,50000,0,0,0,0,0.00,0.00,0.00,0.00
2016-06-27 09:40:00,1,48552,0,0.00,0,2,1,2,46022,50000,1641,49578,0,0,0,0,0.00,0.00,0.00,0.00
2016-06-27 09:50:00,2,49957,0,0.00,0,2,1,2,49570,50000,129,50000,0,0,0,0,0.00,0.00,0.00,0.00
2016-06-27 10:00:00,2,50000,0,0.00,2,2,0,2,50000,50000,0,50000,0,0,0,0,0.00,0.00,0.00,0.00
2016-06-27 10:10:00,2,48231,0,0.00,0,2,1,2,41861,50000,2511,49447,0,0,0,0,0.00,0.00,0.00,0.00
2016-06-27 10:20:00,2,49950,0,0.00,0,2,1,2,49561,50000,131,50000,0,0,0,0,0.00,0.00,0.00,0.00
2016-06-27 10:30:00,2,49708,0,0.00,2,2,0,2,48494,50000,531,50000,0,0,0,0,0.00,0.00,0.00,0.00
2016-06-27 10:40:00,2,48285,0,0.00,2,2,0,2,36712,50000,3933,50000,0,0,0,0,0.00,0.00,0.00,0.00
2016-06-27 10:50:00,2,46700,0,0.00,0,2,1,2,39823,50000,3320,47724,0,0,0,0,0.00,0.00,0.00,0.00
2016-06-27 11:00:00,2,48662,0,0.00,0,2,1,2,38218,50000,3505,50000,0,0,0,0,0.00,0.00,0.00,0.00
2016-06-27 11:10:00,2,49224,0,0.00,2,2,0,2,45389,50000,1586,50000,0,0,0,0,0.00,0.00,0.00,0.00
2016-06-27 11:20:00,2,49436,0,0.00,0,2,1,2,47179,50000,889,50000,0,0,0,0,0.00,0.00,0.00,0.00
2016-06-27 11:30:00,2,49086,0,0.00,2,2,0,2,45138,50000,1556,50000,0,0,0,0,0.00,0.00,0.00,0.00
2016-06-27 11:40:00,2,48985,0,0.00,2,2,0,2,45920,50000,1316,49586,0,0,0,0,0.00,0.00,0.00,0.00
2016-06-27 11:50:00,2,43451,0,0.00,2,2,0,2,13431,50000,11780,49248,0,0,0,0,0.00,0.00,0.00,0.00
2016-06-27 12:00:00,2,49927,0,0.00,2,2,0,2,49272,50000,218,50000,0,0,0,0,0.00,0.00,0.00,0.00
2016-06-27 12:10:00,2,50000,0,0.00,2,2,0,2,50000,50000,0,50000,0,0,0,0,0.00,0.00,0.00,0.00
2016-06-27 12:20:00,2,43579,0,0.00,2,2,0,2,21297,50000,10390,50000,0,0,0,0,0.00,0.00,0.00,0.00
2016-06-27 12:30:00,2,50000,0,0.00,2,2,0,2,50000,50000,0,50000,0,0,0,0,0.00,0.00,0.00,0.00
2016-06-27 12:40:00,2,49890,0,0.00,2,2,0,2,49255,50000,237,50000,0,0,0,0,0.00,0.00,0.00,0.00
2016-06-27 12:50:00,2,50000,0,0.00,2,2,0,2,50000,50000,0,50000,0,0,0,0,0.00,0.00,0.00,0.00
2016-06-27 13:00:00,2,50000,0,0.00,0,2,1,2,50000,50000,0,50000,0,0,0,0,0.00,0.00,0.00,0.00
2016-06-27 13:10:00,2,50000,0,0.00,2,2,0,2,50000,50000,0,50000,0,0,0,0,0.00,0.00,0.00,0.00
2016-06-27 13:20:00,2,49906,0,0.00,2,2,0,2,49055,50000,284,50000,0,0,0,0,0.00,0.00,0.00,0.00
2016-06-27 13:30:00,2,50000,0,0.00,2,2,0,2,50000,50000,0,50000,0,0,0,0,0.00,0.00,0.00,0.00
2016-06-27 13:40:00,2,49888,0,0.00,2,2,0,2,49037,50000,288,50000,0,0,0,0,0.00,0.00,0.00,0.00
2016-06-27 13:50:00,2,50000,0,0.00,2,2,0,2,50000,50000,0,50000,0,0,0,0,0.00,0.00,0.00,0.00
2016-06-27 14:00:00,2,49903,0,0.00,2,2,0,2,49031,50000,291,50000,0,0,0,0,0.00,0.00,0.00,0.00
2016-06-27 14:10:00,2,49987,0,0.00,2,2,0,2,49873,50000,38,50000,0,0,0,0,0.00,0.00,0.00,0.00
2016-06-27 14:20:00,2,50000,0,0.00,2,2,0,2,50000,50000,0,50000,0,0,0,0,0.00,0.00,0.00,0.00
2016-06-27 14:30:00,2,50000,0,0.00,2,2,0,2,50000,50000,0,50000,0,0,0,0,0.00,0.00,0.00,0.00
2016-06-27 14:40:00,1,50000,0,0.00,0,2,1,1,50000,50000,0,50000,0,0,0,0,0.00,0.00,0.00,0.00
2016-06-27 14:50:00,0,50000,0,0.00,0,0,0,0,50000,50000,0,50000,0,0,0,0,0.00,0.00,0.00,0.00
2016-06-27 15:00:00,0,50000,0,0.00,0,0,0,0,50000,50000,0,50000,0,0,0,0,0.00,0.00,0.00,0.00
2016-06-27 15:10:00,1,50000,0,0.00,0,2,1,0,50000,50000,0,50000,0,0,0,0,0.00,0.00,0.00,0.00
2016-06-27 15:20:00,2,49829,0,0.00,2,2,0,2,48294,50000,512,50000,0,0,0,0,0.00,0.00,0.00,0.00
2016-06-27 15:30:00,2,50000,0,0.00,2,2,0,2,50000,50000,0,50000,0,0,0,0,0.00,0.00,0.00,0.00
2016-06-27 15:40:00,2,50000,0,0.00,2,2,0,2,50000,50000,0,50000,0,0,0,0,0.00,0.00,0.00,0.00
2016-06-27 15:50:00,2,49998,0,0.00,2,2,0,2,49984,50000,5,50000,0,0,0,0,0.00,0.00,0.00,0.00
2016-06-27 16:00:00,2,50000,0,0.00,2,2,0,2,50000,50000,0,50000,0,0,0,0,0.00,0.00,0.00,0.00
2016-06-27 16:10:00,2,50000,0,0.00,2,2,0,2,50000,50000,0,50000,0,0,0,0,0.00,0.00,0.00,0.00
2016-06-27 16:20:00,2,50000,0,0.00,2,2,0,2,50000,50000,0,50000,0,0,0,0,0.00,0.00,0.00,0.00
2016-06-27 16:30:00,2,50000,0,0.00,2,2,0,2,50000,50000,0,50000,0,0,0,0,0.00,0.00,0.00,0.00
2016-06-27 16:40:00,2,50000,0,0.00,2,2,0,2,50000,50000,0,50000,0,0,0,0,0.00,0.00,0.00,0.00
2016-06-27 16:50:00,2,50000,0,0.00,2,2,0,2,50000,50000,0,50000,0,0,0,0,0.00,0.00,0.00,0.00
2016-06-27 17:00:00,2,50000,0,0.00,2,2,0,2,50000,50000,0,50000,0,0,0,0,0.00,0.00,0.00,0.00
2016-06-27 17:10:00,2,48245,0,0.00,2,2,0,2,45135,50000,1869,49206,0,0,0,0,0.00,0.00,0.00,0.00
2016-06-27 17:20:00,2,45722,0,0.00,2,2,0,2,33570,50000,5863,48976,0,0,0,0,0.00,0.00,0.00,0.00
2016-06-27 17:30:00,2,46603,0,0.00,2,2,0,2,32142,50000,6302,50000,0,0,0,0,0.00,0.00,0.00,0.00
2016-06-27 17:40:00,2,49578,0,0.00,0,2,1,2,45776,50000,1267,50000,0,0,0,0,0.00,0.00,0.00,0.00
2016-06-27 17:50:00,1,49692,0,0.00,0,2,1,0,47428,50000,770,50000,0,0,0,0,0.00,0.00,0.00,0.00
2016-06-27 18:00:00,2,50000,0,0.00,0,2,1,2,50000,50000,0,50000,0,0,0,0,0.00,0.00,0.00,0.00
2016-06-27 18:10:00,2,49623,0,0.00,0,2,1,2,46227,50000,1132,50000,0,0,0,0,0.00,0.00,0.00,0.00
2016-06-27 18:20:00,2,49810,0,0.00,2,2,0,2,48428,50000,471,50000,0,0,0,0,0.00,0.00,0.00,0.00
2016-06-27 18:30:00,2,49149,0,0.00,2,2,0,2,45594,50000,1468,50000,0,0,0,0,0.00,0.00,0.00,0.00
2016-06-27 18:40:00,2,45697,0,0.00,2,2,0,2,35013,50000,5276,48633,0,0,0,0,0.00,0.00,0.00,0.00
2016-06-27 18:50:00,1,20423,0,0.00,0,2,1,2,7638,44012,9900,18547,0,0,0,0,0.00,0.00,0.00,0.00
2016-06-27 19:00:00,0,18071,0,0.00,0,0,0,0,8042,30214,7166,17238,0,0,0,0,0.00,0.00,0.00,0.00
2016-06-27 19:10:00,1,21089,0,0.00,0,2,1,2,10563,35923,8829,20688,0,0,0,0,0.00,0.00,0.00,0.00
2016-06-27 19:20:00,0,25255,0,0.00,0,2,1,0,12117,37379,9042,26387,0,0,0,0,0.00,0.00,0.00,0.00
2016-06-27 19:30:00,0,10777,2,0.00,0,0,0,0,3471,30131,7897,8086,0,10,4,0,0.00,0.00,0.00,0.00
2016-06-27 19:40:00,0,5842,10,0.00,0,2,1,0,2896,10418,2511,4888,10,10,0,10,0.00,0.00,0.00,0.00
2016-06-27 19:50:00,1,12793,5,0.00,0,2,1,2,5533,24783,6340,12346,0,10,5,5,0.00,0.00,0.00,0.00
2016-06-27 20:00:00,1,15766,0,0.00,0,2,1,2,6207,32262,7778,13631,0,0,0,0,0.00,0.00,0.00,0.00
2016-06-27 20:10:00,0,18479,0,0.00,0,0,0,0,4800,33978,9531,21553,0,0,0,0,0.00,0.00,0.00,0.00
2016-06-27 20:20:00,0,25109,0,0.00,0,0,0,0,12729,50000,13651,17620,0,0,0,0,0.00,0.00,0.00,0.00
2016-06-27 20:30:00,0,44397,0,0.00,0,0,0,0,20180,50000,10297,50000,0,0,0,0,0.00,0.00,0.00,0.00
2016-06-27 20:40:00,0,33070,0,0.00,0,0,0,0,11866,48446,11998,35449,0,0,0,0,0.00,0.00,0.00,0.00
2016-06-27 20:50:00,0,7167,5,0.00,0,0,0,0,4380,10301,1631,7266,0,10,5,5,0.00,0.00,0.00,0.00
2016-06-27 21:00:00,0,13705,4,0.00,0,0,0,0,8118,25785,5482,12512,0,10,5,0,0.00,0.00,0.00,0.00
2016-06-27 21:10:00,0,11235,2,0.00,0,0,0,0,4794,29712,9172,6912,0,10,4,0,0.00,0.00,0.00,0.00
2016-06-27 21:20:00,0,19362,9,0.00,0,0,0,0,4985,45839,13902,16470,0,10,3,10,0.00,0.00,0.00,0.00
2016-06-27 21:30:00,0,20477,7,0.00,0,0,0,0,6195,44772,14009,14697,0,10,5,10,0.00,0.00,0.00,0.00
2016-06-27 21:40:00,0,47406,1,0.00,0,0,0,0,41193,50000,3456,49339,0,10,3,0,0.00,0.00,0.00,0.00
2016-06-27 21:50:00,0,48885,0,0.00,0,0,0,0,46615,50000,1206,49336,0,0,0,0,0.00,0.00,0.00,0.00
2016-06-27 22:00:00,0,31080,0,0.00,0,0,0,0,13772,50000,14604,27748,0,0,0,0,0.00,0.00,0.00,0.00
2016-06-27 22:10:00,2,21421,0,0.00,0,2,1,2,12821,40235,8074,19824,0,0,0,0,0.00,0.00,0.00,0.00
2016-06-27 22:20:00,2,33000,0,0.00,2,2,0,2,27576,39990,3880,33445,0,0,0,0,0.00,0.00,0.00,0.00
2016-06-27 22:30:00,2,48992,0,0.00,2,2,0,2,45492,50000,1507,49875,0,0,0,0,0.00,0.00,0.00,0.00
2016-06-27 22:40:00,2,49629,0,0.00,2,2,0,2,46920,50000,922,50000,0,0,0,0,0.00,0.00,0.00,0.00
2016-06-27 22:50:00,2,48123,0,0.00,2,2,0,2,38720,50000,3848,50000,0,0,0,0,0.00,0.00,0.00,0.00
2016-06-27 23:00:00,2,49983,0,0.00,2,2,0,2,49834,50000,50,50000,0,0,0,0,0.00,0.00,0.00,0.00
2016-06-27 23:10:00,2,50000,0,0.00,2,2,0,2,50000,50000,0,50000,0,0,0,0,0.00,0.00,0.00,0.00
2016-06-27 23:20:00,2,49972,0,0.00,0,2,1,2,49718,50000,85,50000,0,0,0,0,0.00,0.00,0.00,0.00
2016-06-27 23:30:00,2,49763,0,0.00,2,2,0,2,47626,50000,712,50000,0,0,0,0,0.00,0.00,0.00,0.00
2016-06-27 23:40:00,2,48970,0,0.00,2,2,0,2,45344,50000,1768,50000,0,0,0,0,0.00,0.00,0.00,0.00
2016-06-27 23:50:00,2,49149,0,0.00,2,2,0,2,45800,50000,1429,50000,0,0,0,0,0.00,0.00,0.00,0.00
